QPF
0.00 0.00 0.00 0.00 0.00 0.00 0.00 0.00 0.00 0.00 0.00 0.00 0.00 0.00 0.00 0.00 0.00 0.00 0.00 0.00 0.00 0.00 0.00 0.00 0.00 0.00 0.00 0.00 0.00 0.00 0.00 0.00 0.00 0.00 0.01 0.01 0.00 0.02 0.02 0.01 0.01 0.03 0.08 0.10 0.03 0.03 0.00 0.00 0.00
0.00 0.00 0.00 0.00 0.00 0.00 0.00 0.00 0.00 0.00 0.00 0.00 0.00 0.00 0.00 0.00 0.00 0.00 0.00 0.00 0.00 0.00 0.00 0.00 0.00 0.00 0.00 0.00 0.00 0.00 0.00 0.00 0.00 0.00 0.00 0.00 0.00 0.01 0.06 0.01 0.02 0.01 0.05 0.16 0.08 0.00 0.00 0.00 0.00
0.00 0.00 0.00 0.00 0.00 0.00 0.00 0.00 0.00 0.00 0.00 0.00 0.00 0.00 0.00 0.00 0.00 0.00 0.00 0.00 0.00 0.00 0.00 0.00 0.00 0.00 0.00 0.00 0.00 0.00 0.00 0.00 0.00 0.00 0.00 0.00 0.00 0.00 0.05 0.04 0.00 0.01 0.02 0.11 0.05 0.00 0.00 0.00 0.00
0.00 0.00 0.00 0.00 0.00 0.00 0.00 0.00 0.00 0.00 0.00 0.00 0.00 0.00 0.00 0.00 0.00 0.00 0.00 0.00 0.00 0.00 0.00 0.00 0.00 0.00 0.00 0.00 0.00 0.00 0.00 0.00 0.00 0.00 0.00 0.00 0.00 0.00 0.00 0.01 0.01 0.01 0.03 0.03 0.03 0.00 0.00 0.00 0.00
0.00 0.00 0.00 0.00 0.00 0.00 0.00 0.00 0.00 0.00 0.00 0.00 0.00 0.00 0.00 0.00 0.00 0.00 0.00 0.00 0.00 0.00 0.00 0.00 0.00 0.00 0.00 0.00 0.00 0.00 0.00 0.00 0.00 0.00 0.00 0.00 0.00 0.00 0.00 0.00 0.00 0.01 0.05 0.09 0.00 0.00 0.00 0.00 0.00
0.00 0.00 0.00 0.00 0.00 0.00 0.00 0.00 0.00 0.00 0.00 0.00 0.00 0.00 0.00 0.00 0.00 0.00 0.00 0.00 0.00 0.00 0.00 0.00 0.00 0.00 0.00 0.00 0.00 0.00 0.00 0.00 0.00 0.00 0.00 0.00 0.00 0.00 0.00 0.00 0.00 0.00 0.04 0.13 0.06 0.00 0.00 0.00 0.00
0.00 0.00 0.00 0.00 0.00 0.00 0.00 0.00 0.00 0.00 0.00 0.00 0.00 0.00 0.00 0.00 0.00 0.00 0.00 0.00 0.00 0.00 0.00 0.00 0.00 0.00 0.00 0.00 0.00 0.00 0.00 0.00 0.00 0.00 0.00 0.00 0.00 0.00 0.00 0.00 0.00 0.00 0.02 0.07 0.11 0.02 0.00 0.00 0.00
0.00 0.00 0.00 0.00 0.00 0.00 0.00 0.00 0.00 0.00 0.00 0.00 0.00 0.00 0.00 0.00 0.00 0.00 0.00 0.00 0.00 0.00 0.00 0.00 0.00 0.00 0.00 0.00 0.00 0.00 0.00 0.00 0.00 0.00 0.00 0.00 0.00 0.00 0.00 0.00 0.00 0.01 0.00 0.03 0.05 0.02 0.00 0.00 0.00
0.00 0.00 0.00 0.00 0.00 0.00 0.00 0.00 0.00 0.00 0.00 0.00 0.00 0.00 0.00 0.00 0.00 0.00 0.00 0.00 0.00 0.00 0.00 0.00 0.00 0.00 0.00 0.00 0.00 0.00 0.00 0.00 0.00 0.00 0.00 0.00 0.00 0.00 0.00 0.00 0.00 0.01 0.00 0.01 0.03 0.03 0.01 0.00 0.00
0.00 0.00 0.00 0.00 0.00 0.00 0.00 0.00 0.00 0.00 0.00 0.00 0.00 0.00 0.00 0.00 0.00 0.00 0.00 0.00 0.00 0.00 0.00 0.00 0.00 0.00 0.00 0.00 0.00 0.00 0.00 0.00 0.00 0.00 0.00 0.00 0.00 0.00 0.00 0.00 0.00 0.00 0.01 0.00 0.03 0.04 0.01 0.00 0.00
0.00 0.00 0.00 0.00 0.00 0.00 0.00 0.00 0.00 0.00 0.00 0.00 0.00 0.00 0.00 0.00 0.00 0.00 0.00 0.00 0.00 0.00 0.00 0.00 0.00 0.00 0.00 0.00 0.00 0.00 0.00 0.00 0.00 0.00 0.00 0.00 0.00 0.00 0.00 0.00 0.00 0.00 0.00 0.01 0.02 0.04 0.01 0.00 0.00
0.00 0.00 0.00 0.00 0.00 0.00 0.00 0.00 0.00 0.00 0.00 0.00 0.00 0.00 0.00 0.00 0.00 0.00 0.00 0.00 0.00 0.00 0.00 0.00 0.00 0.00 0.00 0.00 0.00 0.00 0.00 0.00 0.00 0.00 0.00 0.00 0.00 0.00 0.00 0.00 0.00 0.00 0.00 0.00 0.01 0.01 0.00 0.00 0.00
0.00 0.00 0.00 0.00 0.00 0.00 0.00 0.00 0.00 0.00 0.00 0.00 0.00 0.00 0.00 0.00 0.00 0.00 0.00 0.00 0.00 0.00 0.00 0.00 0.00 0.00 0.00 0.00 0.00 0.00 0.00 0.00 0.00 0.00 0.00 0.00 0.00 0.00 0.00 0.00 0.00 0.00 0.00 0.00 0.00 0.00 0.00 0.00 0.00
0.00 0.00 0.00 0.00 0.00 0.00 0.00 0.00 0.00 0.00 0.00 0.00 0.00 0.00 0.00 0.00 0.00 0.00 0.00 0.00 0.00 0.00 0.00 0.00 0.00 0.00 0.00 0.00 0.00 0.00 0.00 0.00 0.00 0.00 0.00 0.00 0.00 0.00 0.00 0.00 0.00 0.00 0.00 0.00 0.00 0.00 0.00 0.00 0.00
0.00 0.00 0.00 0.00 0.00 0.00 0.00 0.00 0.00 0.00 0.00 0.00 0.00 0.00 0.00 0.00 0.00 0.00 0.00 0.00 0.00 0.00 0.00 0.00 0.00 0.00 0.00 0.00 0.00 0.00 0.00 0.00 0.00 0.00 0.00 0.00 0.00 0.00 0.00 0.00 0.00 0.00 0.00 0.00 0.00 0.00 0.00 0.00 0.00
0.00 0.00 0.00 0.00 0.00 0.00 0.00 0.00 0.00 0.00 0.00 0.00 0.00 0.00 0.00 0.00 0.00 0.00 0.00 0.00 0.00 0.00 0.00 0.00 0.00 0.00 0.00 0.00 0.00 0.00 0.00 0.00 0.00 0.00 0.00 0.00 0.00 0.00 0.00 0.00 0.00 0.00 0.00 0.00 0.00 0.00 0.00 0.00 0.00
0.00 0.00 0.00 0.00 0.00 0.00 0.00 0.00 0.00 0.00 0.00 0.00 0.00 0.00 0.00 0.00 0.00 0.00 0.00 0.00 0.00 0.00 0.00 0.00 0.00 0.00 0.00 0.00 0.00 0.00 0.00 0.00 0.00 0.00 0.00 0.00 0.00 0.00 0.00 0.00 0.00 0.00 0.00 0.00 0.00 0.00 0.00 0.00 0.00
0.00 0.00 0.00 0.00 0.00 0.00 0.00 0.00 0.00 0.00 0.00 0.00 0.00 0.00 0.00 0.00 0.00 0.00 0.00 0.00 0.00 0.00 0.00 0.00 0.00 0.00 0.00 0.00 0.00 0.00 0.00 0.00 0.00 0.00 0.00 0.00 0.00 0.00 0.00 0.00 0.00 0.00 0.00 0.00 0.00 0.00 0.00 0.00 0.00
0.00 0.00 0.00 0.00 0.00 0.00 0.00 0.00 0.00 0.00 0.00 0.00 0.00 0.00 0.00 0.00 0.00 0.00 0.00 0.00 0.00 0.00 0.00 0.00 0.00 0.00 0.00 0.00 0.00 0.00 0.00 0.00 0.00 0.00 0.00 0.00 0.00 0.00 0.00 0.00 0.00 0.00 0.00 0.00 0.00 0.00 0.00 0.00 0.00
0.00 0.00 0.00 0.00 0.00 0.00 0.00 0.00 0.00 0.00 0.00 0.00 0.00 0.00 0.00 0.00 0.00 0.00 0.00 0.00 0.00 0.00 0.00 0.00 0.00 0.00 0.00 0.00 0.00 0.00 0.00 0.00 0.00 0.00 0.00 0.00 0.00 0.00 0.00 0.00 0.00 0.00 0.00 0.00 0.00 0.00 0.00 0.00 0.00
0.00 0.00 0.00 0.00 0.00 0.00 0.00 0.00 0.00 0.00 0.00 0.00 0.00 0.00 0.00 0.00 0.00 0.00 0.00 0.00 0.00 0.00 0.00 0.00 0.00 0.00 0.00 0.00 0.00 0.00 0.00 0.00 0.00 0.00 0.00 0.00 0.00 0.00 0.00 0.00 0.00 0.00 0.00 0.00 0.00 0.00 0.00 0.00 0.00
0.00 0.00 0.00 0.00 0.00 0.00 0.00 0.00 0.00 0.00 0.00 0.00 0.00 0.00 0.00 0.00 0.00 0.00 0.00 0.00 0.00 0.00 0.00 0.00 0.00 0.00 0.00 0.00 0.00 0.00 0.00 0.00 0.00 0.00 0.00 0.00 0.00 0.00 0.00 0.00 0.00 0.00 0.00 0.00 0.00 0.00 0.00 0.00 0.00
0.00 0.00 0.00 0.00 0.00 0.00 0.00 0.00 0.00 0.00 0.00 0.00 0.00 0.00 0.00 0.00 0.00 0.00 0.00 0.00 0.00 0.00 0.00 0.00 0.00 0.00 0.00 0.00 0.00 0.00 0.00 0.00 0.00 0.00 0.00 0.00 0.00 0.00 0.00 0.00 0.00 0.00 0.00 0.00 0.00 0.00 0.00 0.00 0.00
0.00 0.00 0.00 0.00 0.00 0.00 0.00 0.00 0.00 0.00 0.00 0.00 0.00 0.00 0.00 0.00 0.00 0.00 0.00 0.00 0.00 0.00 0.00 0.00 0.00 0.00 0.00 0.00 0.00 0.00 0.00 0.00 0.00 0.00 0.00 0.00 0.00 0.00 0.00 0.00 0.00 0.00 0.00 0.00 0.00 0.00 0.00 0.00 0.00
0.00 0.00 0.00 0.00 0.00 0.00 0.00 0.00 0.00 0.00 0.00 0.00 0.00 0.00 0.00 0.00 0.00 0.00 0.00 0.00 0.00 0.00 0.00 0.00 0.00 0.00 0.00 0.00 0.00 0.00 0.00 0.00 0.00 0.00 0.00 0.00 0.00 0.00 0.00 0.00 0.00 0.00 0.00 0.00 0.00 0.00 0.00 0.00 0.00
0.00 0.00 0.00 0.00 0.00 0.00 0.00 0.00 0.00 0.00 0.00 0.00 0.00 0.00 0.00 0.00 0.00 0.00 0.00 0.00 0.00 0.00 0.00 0.00 0.00 0.00 0.00 0.00 0.00 0.00 0.00 0.00 0.00 0.00 0.00 0.00 0.00 0.00 0.00 0.00 0.00 0.00 0.00 0.00 0.00 0.00 0.00 0.00 0.00
0.00 0.00 0.00 0.00 0.00 0.00 0.00 0.00 0.00 0.00 0.00 0.00 0.00 0.00 0.00 0.00 0.00 0.00 0.00 0.00 0.00 0.00 0.00 0.00 0.00 0.00 0.00 0.00 0.00 0.00 0.00 0.00 0.00 0.00 0.00 0.00 0.00 0.00 0.00 0.00 0.00 0.00 0.00 0.00 0.00 0.00 0.00 0.00 0.00
0.00 0.00 0.00 0.00 0.00 0.00 0.00 0.00 0.00 0.00 0.00 0.00 0.00 0.00 0.00 0.00 0.00 0.00 0.00 0.00 0.00 0.00 0.00 0.00 0.00 0.00 0.00 0.00 0.00 0.00 0.00 0.00 0.00 0.00 0.00 0.00 0.00 0.00 0.00 0.00 0.00 0.00 0.00 0.00 0.00 0.00 0.00 0.00 0.00
0.00 0.00 0.00 0.00 0.00 0.00 0.00 0.00 0.00 0.00 0.00 0.00 0.00 0.00 0.00 0.00 0.00 0.00 0.00 0.00 0.00 0.00 0.00 0.00 0.00 0.00 0.00 0.00 0.00 0.00 0.00 0.00 0.00 0.00 0.00 0.00 0.00 0.00 0.00 0.00 0.00 0.00 0.00 0.00 0.00 0.00 0.00 0.00 0.00
0.00 0.00 0.00 0.00 0.00 0.00 0.00 0.00 0.00 0.00 0.00 0.00 0.00 0.00 0.00 0.00 0.00 0.00 0.00 0.00 0.00 0.00 0.00 0.00 0.00 0.00 0.00 0.00 0.00 0.00 0.00 0.00 0.00 0.00 0.00 0.00 0.00 0.00 0.00 0.00 0.00 0.00 0.00 0.00 0.00 0.00 0.00 0.00 0.00
MSLP
1014.87 1014.59 1014.46 1014.97 1017.37 1020.10 1022.20 1022.72 1022.56 1022.35 1022.49 1022.79 1022.76 1023.04 1024.36 1025.16 1026.00 1027.29 1027.42 1027.70 1027.48 1027.07 1026.53 1026.11 1025.56 1025.03 1024.46 1024.10 1023.60 1023.02 1022.48 1021.98 1021.56 1021.08 1020.52 1019.96 1019.48 1019.04 1018.66 1018.50 1018.30 1018.15 1018.15 1018.14 1018.27 1018.38 1018.57 1018.57 1018.70
1015.12 1014.81 1015.37 1017.20 1019.57 1022.27 1023.67 1023.31 1023.12 1023.03 1023.02 1023.22 1023.53 1024.22 1024.84 1026.21 1026.57 1027.15 1027.57 1027.83 1027.75 1027.58 1027.09 1026.36 1025.92 1025.54 1024.95 1024.47 1023.99 1023.53 1023.04 1022.60 1022.11 1021.65 1021.14 1020.59 1019.89 1019.34 1018.90 1018.67 1018.56 1018.41 1018.40 1018.43 1018.49 1018.70 1018.86 1018.97 1019.03
1015.27 1015.44 1017.26 1019.25 1021.92 1023.53 1023.79 1023.76 1023.54 1023.43 1023.24 1023.36 1023.97 1024.87 1025.75 1026.94 1026.96 1027.35 1027.87 1027.84 1027.72 1027.87 1027.75 1026.81 1026.26 1026.03 1025.47 1025.00 1024.68 1024.21 1023.72 1023.15 1022.69 1022.24 1021.77 1021.25 1020.57 1019.89 1019.51 1019.02 1018.79 1018.70 1018.58 1018.63 1018.70 1018.91 1019.13 1019.25 1019.36
1015.89 1016.75 1019.03 1020.73 1023.24 1023.99 1023.88 1023.84 1023.81 1023.84 1023.89 1024.06 1024.67 1026.10 1026.81 1027.19 1027.24 1027.58 1027.85 1027.79 1027.86 1028.07 1027.95 1027.30 1026.75 1026.51 1026.16 1025.60 1025.10 1024.72 1024.19 1023.64 1023.07 1022.78 1022.35 1021.77 1021.17 1020.51 1020.08 1019.65 1019.10 1018.97 1018.94 1018.89 1018.87 1019.11 1019.33 1019.51 1019.54
1016.92 1018.29 1020.71 1022.99 1024.04 1024.18 1024.07 1023.95 1024.03 1024.22 1024.62 1025.11 1025.22 1026.57 1027.25 1027.45 1027.69 1027.84 1028.05 1028.01 1028.19 1028.30 1028.02 1027.71 1027.18 1027.00 1026.74 1026.22 1025.76 1025.21 1024.80 1024.20 1023.75 1023.17 1022.87 1022.36 1021.80 1021.25 1020.66 1020.20 1019.83 1019.18 1019.06 1019.08 1019.13 1019.32 1019.47 1019.67 1019.76
1018.38 1019.53 1022.16 1023.90 1024.47 1024.58 1024.46 1024.29 1024.32 1024.64 1025.04 1025.35 1025.85 1026.94 1027.61 1027.73 1028.05 1028.29 1028.15 1028.28 1028.41 1028.49 1028.44 1028.24 1027.99 1027.76 1027.59 1026.99 1026.33 1025.83 1025.29 1024.72 1024.11 1023.66 1023.17 1022.74 1022.36 1021.87 1021.25 1020.82 1020.46 1019.81 1019.19 1019.09 1019.18 1019.34 1019.59 1019.75 1019.95
1019.22 1021.08 1023.44 1024.26 1024.83 1024.88 1024.58 1024.60 1024.78 1025.04 1025.32 1025.69 1025.94 1027.38 1028.05 1028.36 1028.64 1028.71 1028.68 1028.58 1028.51 1028.46 1028.43 1028.42 1028.41 1028.11 1028.12 1027.62 1027.16 1026.47 1025.96 1025.35 1024.76 1024.41 1023.80 1023.44 1023.02 1022.40 1021.93 1021.47 1020.91 1020.31 1019.70 1019.22 1019.23 1019.40 1019.56 1019.86 1020.07
1019.86 1021.49 1024.05 1024.45 1024.80 1024.60 1024.51 1024.64 1024.83 1025.06 1025.50 1025.67 1025.99 1027.23 1028.06 1028.32 1028.70 1028.84 1028.90 1028.93 1028.83 1028.82 1028.88 1028.57 1028.30 1028.23 1028.04 1027.74 1027.44 1026.95 1026.37 1025.98 1025.50 1025.06 1024.55 1024.09 1023.59 1023.01 1022.38 1022.07 1021.44 1020.84 1020.37 1019.69 1019.30 1019.42 1019.70 1019.84 1020.18
1020.12 1022.09 1024.42 1024.56 1024.81 1024.64 1024.85 1025.16 1025.29 1025.37 1025.59 1025.94 1026.48 1026.88 1027.02 1027.90 1028.74 1029.15 1029.29 1029.33 1029.26 1029.12 1029.14 1028.99 1028.64 1028.30 1028.19 1027.74 1027.79 1027.48 1026.87 1026.47 1026.05 1025.86 1025.37 1024.62 1024.24 1023.73 1023.18 1022.67 1022.06 1021.37 1020.82 1020.17 1019.35 1019.40 1019.65 1019.99 1020.24
1021.18 1023.00 1024.01 1024.27 1024.34 1024.71 1025.03 1025.32 1025.62 1025.94 1026.19 1026.58 1027.21 1027.38 1027.72 1028.32 1028.87 1029.25 1029.45 1029.62 1029.44 1029.33 1029.24 1029.33 1028.99 1028.82 1028.40 1027.99 1027.96 1027.61 1027.49 1027.43 1026.99 1026.58 1026.17 1025.28 1024.81 1024.53 1023.85 1023.25 1022.57 1021.99 1021.26 1020.66 1020.01 1019.27 1019.64 1020.02 1020.42
1022.57 1023.64 1024.22 1024.58 1024.58 1024.70 1025.32 1025.69 1025.79 1026.10 1026.50 1026.21 1026.89 1027.67 1028.17 1028.71 1029.20 1029.54 1029.67 1029.69 1029.57 1029.57 1029.56 1029.54 1029.20 1029.08 1028.95 1028.80 1028.70 1028.29 1027.99 1027.73 1027.43 1027.05 1026.72 1026.03 1025.35 1024.94 1024.32 1023.78 1023.13 1022.55 1021.82 1021.27 1020.85 1020.06 1019.44 1019.94 1020.31
1023.66 1024.42 1024.47 1024.86 1024.90 1025.13 1025.61 1025.82 1026.02 1026.13 1025.69 1025.54 1026.32 1027.28 1028.10 1028.79 1029.18 1029.41 1029.75 1029.93 1029.99 1029.96 1029.93 1029.82 1029.54 1029.18 1029.05 1029.03 1029.06 1028.89 1028.58 1028.22 1027.79 1027.53 1027.22 1026.53 1025.85 1025.46 1024.99 1024.44 1023.98 1023.34 1022.76 1022.01 1021.48 1021.08 1020.29 1019.76 1020.02
1024.00 1024.80 1024.99 1025.19 1025.30 1025.47 1025.63 1025.84 1025.97 1025.72 1025.81 1026.06 1026.61 1027.52 1028.26 1028.86 1029.31 1029.54 1029.62 1029.87 1030.04 1030.20 1030.21 1029.97 1029.69 1029.59 1029.51 1029.35 1029.36 1028.86 1028.83 1028.83 1028.54 1028.13 1027.66 1026.95 1026.56 1026.26 1025.63 1025.14 1024.68 1024.10 1023.34 1022.60 1021.95 1021.63 1020.68 1020.11 1019.80
1024.59 1024.84 1025.30 1025.47 1025.60 1025.66 1025.75 1025.90 1025.97 1024.99 1025.49 1026.38 1026.82 1027.65 1028.33 1028.79 1029.24 1029.70 1029.81 1030.00 1030.13 1030.24 1030.25 1030.22 1030.33 1030.40 1030.20 1030.06 1029.84 1029.53 1029.29 1029.22 1029.02 1028.69 1028.21 1027.64 1027.18 1026.92 1026.27 1026.01 1025.21 1024.82 1024.15 1023.29 1022.47 1021.65 1021.08 1020.14 1020.04
1024.73 1025.21 1025.34 1025.57 1025.74 1025.92 1026.07 1026.06 1025.34 1024.91 1025.41 1026.27 1026.91 1027.54 1028.34 1028.86 1029.37 1029.49 1029.59 1029.82 1029.97 1030.14 1030.24 1030.22 1030.28 1030.62 1030.84 1030.86 1030.53 1030.15 1029.85 1029.59 1029.33 1028.91 1028.41 1028.08 1027.69 1027.47 1026.89 1026.51 1025.81 1025.29 1024.77 1024.15 1022.78 1022.22 1021.41 1020.63 1020.34
1025.06 1025.28 1025.62 1025.55 1025.74 1026.00 1026.22 1025.22 1024.43 1024.89 1025.50 1026.12 1026.76 1027.40 1028.10 1028.78 1029.20 1029.50 1029.72 1029.84 1030.08 1030.27 1030.53 1030.69 1030.72 1030.95 1030.98 1030.91 1030.73 1030.68 1030.59 1030.43 1029.96 1029.47 1029.07 1028.72 1028.25 1027.77 1027.09 1026.84 1026.52 1026.02 1025.16 1024.60 1023.66 1022.77 1022.20 1021.52 1020.66
1025.95 1025.59 1025.66 1025.59 1025.73 1026.01 1026.27 1025.49 1024.73 1024.91 1025.51 1026.09 1026.64 1027.29 1027.91 1028.74 1029.34 1029.63 1029.96 1030.11 1030.37 1030.55 1030.71 1030.84 1030.98 1031.14 1031.17 1031.21 1031.08 1031.01 1030.86 1030.77 1030.59 1030.21 1029.62 1029.10 1028.74 1028.15 1027.64 1027.37 1026.86 1026.32 1025.43 1025.12 1024.81 1023.37 1022.84 1021.99 1021.06
1025.67 1025.72 1025.69 1025.75 1026.17 1026.14 1026.27 1025.36 1025.17 1025.13 1025.55 1025.87 1026.29 1027.10 1027.84 1028.44 1028.78 1029.39 1029.89 1030.12 1030.43 1030.71 1030.82 1031.01 1031.10 1031.17 1031.19 1031.11 1030.99 1030.93 1030.91 1030.96 1030.87 1030.55 1030.03 1029.55 1029.39 1028.88 1028.26 1027.71 1027.21 1026.65 1025.75 1025.72 1025.00 1023.97 1023.00 1022.20 1021.35
1025.26 1025.52 1025.81 1026.17 1026.45 1026.57 1026.40 1025.65 1024.16 1024.70 1025.02 1025.33 1025.88 1026.47 1027.33 1027.93 1028.52 1029.23 1029.72 1030.09 1030.54 1030.84 1030.94 1031.06 1031.19 1031.38 1031.38 1031.19 1031.29 1031.23 1031.33 1031.19 1030.87 1030.74 1030.28 1029.80 1029.79 1029.04 1028.58 1028.34 1027.70 1027.11 1026.67 1026.29 1026.01 1025.34 1023.84 1021.97 1022.34
1025.88 1026.33 1026.70 1027.02 1027.18 1027.30 1026.94 1025.71 1023.75 1023.40 1023.50 1023.79 1024.59 1025.45 1026.36 1027.68 1028.57 1029.11 1029.59 1030.05 1030.46 1030.75 1030.96 1031.16 1031.27 1031.33 1031.41 1031.55 1031.65 1031.68 1031.51 1031.25 1031.22 1031.05 1030.53 1030.40 1029.80 1029.48 1029.08 1028.70 1028.11 1027.81 1027.27 1026.64 1026.52 1026.60 1024.55 1023.55 1023.41
1027.16 1027.35 1027.66 1028.19 1028.19 1028.37 1028.20 1026.17 1024.17 1022.53 1022.78 1023.12 1023.82 1024.54 1025.56 1026.49 1027.74 1028.68 1029.25 1029.70 1030.28 1030.69 1030.88 1031.04 1031.25 1031.39 1031.54 1031.48 1031.58 1031.62 1031.54 1031.54 1031.59 1031.36 1031.20 1030.75 1030.21 1029.89 1029.44 1028.96 1028.64 1028.52 1027.84 1027.76 1027.59 1026.76 1026.99 1025.55 1023.68
1028.49 1028.56 1028.76 1029.28 1029.71 1030.19 1029.59 1028.03 1025.08 1023.43 1022.91 1022.92 1023.49 1024.29 1025.14 1026.04 1027.02 1027.85 1028.71 1029.49 1030.03 1030.40 1030.66 1030.88 1031.09 1031.22 1031.41 1031.61 1031.78 1031.86 1032.02 1032.12 1032.14 1032.07 1031.73 1031.15 1030.72 1030.40 1030.03 1029.99 1029.62 1029.31 1028.73 1028.48 1028.14 1027.52 1026.58 1026.04 1025.42
1029.69 1029.84 1030.36 1030.91 1031.49 1031.93 1030.94 1030.36 1024.93 1024.54 1023.63 1022.53 1022.82 1023.93 1024.93 1025.68 1026.46 1027.36 1028.12 1028.73 1029.47 1030.06 1030.40 1030.69 1030.98 1031.19 1031.41 1031.62 1031.88 1032.04 1032.20 1032.29 1032.29 1032.15 1031.85 1031.48 1031.20 1030.87 1030.80 1030.36 1030.11 1029.73 1029.43 1028.73 1028.67 1027.75 1027.82 1027.57 1026.33
1030.46 1031.34 1032.06 1032.67 1032.98 1033.11 1031.40 1030.94 1026.08 1024.78 1023.27 1022.75 1022.89 1023.79 1024.77 1025.71 1026.55 1027.23 1027.91 1028.59 1029.27 1029.86 1030.25 1030.65 1030.91 1031.17 1031.48 1031.69 1031.81 1031.82 1032.02 1032.17 1032.23 1032.19 1032.01 1031.69 1031.45 1031.23 1031.06 1030.70 1030.57 1030.08 1029.34 1029.47 1028.48 1027.55 1028.27 1027.30 1027.68
1031.43 1032.50 1033.57 1034.24 1034.16 1033.11 1032.31 1031.75 1026.16 1023.96 1023.55 1023.56 1023.46 1023.99 1024.81 1025.55 1026.38 1027.16 1027.78 1028.39 1029.08 1029.51 1030.04 1030.45 1030.65 1030.93 1031.17 1031.42 1031.60 1031.79 1031.90 1032.04 1032.13 1032.16 1032.08 1031.91 1031.72 1031.46 1031.23 1031.06 1030.77 1030.51 1030.12 1029.68 1029.24 1029.03 1028.44 1028.11 1027.33
1032.35 1032.71 1032.93 1033.57 1034.46 1033.57 1032.84 1030.21 1024.94 1023.16 1023.05 1023.76 1023.66 1024.22 1024.76 1025.44 1025.97 1026.64 1027.07 1027.72 1028.46 1029.10 1029.61 1030.01 1030.28 1030.52 1030.76 1031.08 1031.38 1031.63 1031.54 1031.72 1031.90 1032.04 1032.09 1032.00 1031.89 1031.77 1031.40 1031.20 1031.04 1030.65 1030.19 1029.77 1029.37 1028.88 1028.49 1027.91 1028.05
1033.01 1033.19 1032.47 1033.19 1034.59 1033.80 1030.67 1027.93 1024.51 1022.43 1022.58 1023.51 1024.03 1024.35 1024.54 1024.97 1025.48 1025.92 1026.61 1027.18 1027.92 1028.54 1028.90 1029.30 1029.68 1029.99 1030.31 1030.61 1030.97 1031.34 1031.56 1031.67 1031.80 1031.90 1031.89 1031.81 1031.74 1031.34 1031.37 1031.25 1031.03 1030.72 1030.49 1030.07 1029.41 1028.87 1028.53 1027.99 1027.60
1032.17 1032.53 1032.95 1033.54 1033.99 1033.06 1030.48 1028.34 1024.61 1022.89 1022.53 1022.83 1023.51 1023.75 1024.00 1024.62 1025.05 1025.51 1026.02 1026.53 1027.13 1027.71 1028.27 1028.81 1029.10 1029.39 1029.65 1030.07 1030.51 1030.98 1031.29 1031.51 1031.66 1031.73 1031.61 1031.60 1031.58 1031.47 1031.41 1031.31 1031.13 1030.79 1030.46 1030.26 1030.11 1029.63 1028.90 1028.27 1027.56
1032.74 1032.94 1033.16 1032.95 1032.19 1031.28 1030.02 1026.01 1022.59 1021.92 1021.74 1022.18 1022.17 1022.81 1023.21 1023.64 1024.03 1024.57 1025.12 1025.73 1026.40 1027.16 1027.78 1028.21 1028.77 1029.10 1029.38 1029.66 1030.10 1030.58 1030.98 1031.24 1031.36 1031.37 1031.40 1031.44 1031.45 1031.43 1031.37 1031.29 1031.12 1030.90 1030.57 1030.31 1030.21 1029.96 1029.25 1028.79 1028.38
1031.78 1031.55 1031.54 1031.71 1031.51 1030.76 1028.69 1023.55 1020.99 1021.04 1021.20 1021.68 1021.58 1021.98 1022.45 1022.80 1023.24 1023.95 1024.32 1025.08 1025.89 1026.34 1027.04 1027.44 1028.04 1028.51 1028.63 1028.99 1029.59 1030.04 1030.34 1030.65 1030.96 1031.14 1031.22 1031.30 1031.40 1031.33 1031.29 1031.23 1031.05 1030.74 1030.56 1030.33 1030.11 1029.90 1029.42 1028.96 1028.42
Thickness
5723 5726 5729 5721 5686 5666 5647 5655 5656 5661 5661 5661 5665 5659 5647 5644 5642 5641 5633 5633 5635 5638 5642 5646 5649 5653 5658 5662 5668 5674 5681 5686 5690 5695 5700 5705 5709 5714 5717 5718 5720 5722 5722 5722 5719 5718 5715 5714 5714
5721 5726 5719 5697 5665 5647 5641 5655 5656 5657 5661 5660 5660 5652 5648 5637 5638 5634 5633 5633 5635 5636 5639 5643 5646 5650 5654 5659 5664 5670 5674 5680 5686 5690 5695 5700 5706 5711 5715 5717 5719 5721 5722 5722 5720 5718 5716 5714 5713
5720 5720 5701 5675 5650 5641 5645 5654 5656 5658 5659 5664 5658 5650 5645 5634 5637 5634 5631 5633 5635 5634 5636 5641 5645 5647 5652 5656 5658 5662 5668 5674 5680 5685 5689 5695 5702 5706 5711 5715 5718 5720 5720 5722 5720 5718 5716 5715 5712
5714 5707 5688 5661 5648 5650 5652 5654 5656 5657 5659 5656 5651 5638 5637 5636 5637 5632 5632 5634 5635 5633 5635 5640 5643 5644 5647 5653 5656 5658 5663 5670 5675 5679 5684 5690 5697 5703 5706 5710 5715 5717 5718 5719 5721 5718 5717 5714 5712
5703 5693 5664 5649 5649 5650 5653 5656 5655 5655 5653 5648 5651 5634 5631 5636 5632 5631 5631 5632 5632 5631 5635 5638 5641 5642 5643 5648 5652 5656 5659 5663 5669 5674 5678 5685 5690 5696 5702 5705 5708 5713 5716 5717 5717 5717 5716 5714 5712
5691 5683 5655 5644 5646 5649 5650 5652 5653 5651 5649 5648 5643 5631 5629 5632 5629 5627 5629 5630 5629 5629 5630 5632 5634 5636 5637 5641 5647 5652 5655 5660 5665 5668 5673 5678 5683 5688 5695 5699 5703 5708 5713 5714 5716 5715 5715 5714 5712
5684 5663 5646 5638 5640 5646 5649 5647 5645 5646 5646 5646 5642 5626 5626 5627 5623 5623 5624 5626 5627 5628 5630 5631 5631 5632 5632 5637 5639 5645 5649 5653 5658 5661 5664 5668 5673 5680 5686 5692 5698 5703 5708 5712 5713 5715 5714 5713 5712
5671 5663 5650 5647 5641 5651 5651 5649 5646 5647 5646 5646 5642 5624 5623 5625 5622 5622 5622 5623 5624 5625 5625 5628 5630 5630 5632 5635 5637 5642 5645 5647 5650 5653 5657 5659 5664 5670 5678 5683 5690 5696 5702 5707 5710 5712 5711 5712 5712
5677 5641 5624 5647 5644 5650 5644 5643 5642 5642 5642 5642 5637 5634 5635 5627 5620 5617 5616 5616 5619 5620 5620 5621 5624 5627 5628 5630 5630 5634 5640 5642 5644 5644 5647 5653 5656 5660 5666 5673 5680 5687 5695 5701 5707 5708 5709 5708 5710
5661 5641 5652 5648 5646 5641 5640 5642 5635 5638 5636 5637 5626 5627 5624 5622 5619 5616 5614 5612 5614 5616 5617 5617 5620 5620 5623 5624 5626 5630 5631 5631 5635 5636 5638 5645 5648 5651 5654 5660 5668 5676 5685 5693 5700 5705 5705 5705 5705
5650 5637 5642 5640 5640 5642 5635 5634 5635 5628 5630 5632 5626 5622 5619 5617 5614 5611 5611 5611 5612 5612 5610 5612 5614 5615 5616 5617 5619 5623 5625 5627 5629 5629 5631 5636 5640 5643 5647 5649 5655 5663 5673 5682 5688 5695 5703 5701 5704
5639 5635 5640 5634 5634 5636 5630 5629 5631 5625 5641 5640 5630 5623 5616 5612 5611 5610 5607 5605 5605 5606 5605 5605 5608 5611 5612 5613 5613 5614 5616 5617 5621 5622 5623 5627 5631 5632 5634 5638 5639 5647 5655 5666 5676 5683 5692 5697 5701
5634 5631 5627 5625 5625 5623 5625 5627 5627 5626 5628 5628 5624 5619 5612 5607 5605 5603 5603 5601 5600 5599 5600 5602 5604 5604 5604 5605 5605 5609 5609 5607 5608 5611 5613 5617 5618 5619 5621 5623 5626 5630 5640 5650 5661 5670 5681 5689 5695
5624 5620 5618 5622 5622 5622 5624 5622 5618 5636 5625 5620 5620 5613 5606 5604 5601 5597 5597 5596 5595 5594 5594 5594 5593 5593 5594 5595 5595 5596 5597 5596 5596 5599 5601 5603 5604 5605 5609 5609 5612 5614 5621 5632 5645 5658 5668 5680 5684
5619 5619 5619 5617 5617 5615 5609 5616 5614 5629 5623 5618 5614 5610 5603 5600 5596 5596 5595 5593 5592 5591 5590 5589 5588 5586 5583 5582 5583 5585 5586 5585 5586 5589 5592 5592 5591 5591 5595 5595 5597 5597 5603 5612 5629 5640 5654 5666 5671
5613 5609 5608 5613 5611 5607 5609 5633 5635 5619 5620 5618 5612 5607 5600 5595 5593 5591 5589 5587 5585 5583 5580 5579 5577 5576 5576 5576 5577 5575 5574 5573 5574 5575 5576 5577 5578 5578 5581 5582 5580 5579 5585 5594 5607 5622 5634 5647 5661
5587 5597 5616 5618 5604 5604 5605 5619 5627 5615 5611 5612 5609 5603 5596 5589 5585 5583 5581 5579 5577 5575 5573 5572 5570 5568 5568 5567 5567 5566 5566 5565 5563 5562 5564 5565 5565 5566 5565 5564 5565 5565 5570 5574 5584 5603 5615 5630 5646
5607 5590 5608 5612 5597 5596 5596 5599 5608 5611 5606 5607 5604 5598 5590 5586 5585 5579 5575 5573 5570 5567 5566 5564 5563 5561 5560 5561 5561 5561 5559 5557 5555 5555 5556 5557 5553 5552 5552 5551 5549 5548 5553 5555 5567 5586 5600 5617 5633
5594 5600 5605 5595 5584 5589 5588 5587 5614 5609 5604 5601 5598 5596 5588 5585 5580 5573 5569 5566 5562 5559 5557 5556 5555 5553 5552 5554 5552 5551 5548 5549 5550 5549 5550 5551 5544 5546 5545 5540 5538 5536 5534 5536 5544 5561 5581 5606 5614
5589 5586 5589 5576 5575 5578 5570 5586 5611 5619 5613 5609 5607 5601 5592 5576 5571 5568 5563 5559 5555 5552 5550 5547 5546 5545 5544 5542 5541 5540 5540 5541 5540 5539 5542 5539 5540 5538 5535 5533 5531 5525 5519 5518 5524 5539 5564 5583 5592
5565 5557 5566 5570 5561 5558 5551 5584 5602 5624 5611 5609 5601 5598 5590 5583 5571 5563 5558 5553 5547 5544 5542 5541 5538 5536 5535 5535 5533 5531 5531 5529 5528 5529 5529 5530 5532 5530 5529 5528 5522 5511 5506 5498 5501 5523 5533 5552 5573
5552 5547 5552 5550 5540 5543 5536 5564 5593 5613 5605 5604 5597 5586 5579 5575 5570 5562 5553 5545 5540 5537 5534 5533 5531 5529 5527 5525 5524 5522 5520 5519 5516 5515 5517 5520 5522 5520 5517 5511 5508 5501 5495 5484 5487 5509 5527 5538 5551
5527 5525 5522 5521 5501 5484 5526 5501 5584 5588 5608 5611 5596 5581 5569 5567 5562 5555 5548 5544 5536 5530 5527 5524 5522 5521 5519 5517 5514 5512 5510 5509 5508 5508 5509 5510 5510 5510 5506 5505 5501 5498 5492 5486 5483 5503 5512 5517 5536
5508 5492 5485 5467 5462 5479 5504 5502 5568 5576 5586 5618 5595 5572 5560 5553 5549 5546 5539 5533 5528 5523 5519 5516 5514 5513 5510 5508 5507 5506 5504 5502 5500 5499 5500 5501 5501 5500 5499 5499 5496 5495 5497 5490 5491 5501 5505 5517 5517
5470 5474 5479 5491 5456 5522 5483 5461 5549 5567 5551 5563 5579 5569 5552 5542 5537 5533 5529 5525 5520 5516 5513 5509 5509 5507 5504 5501 5500 5498 5496 5494 5492 5491 5491 5491 5490 5491 5492 5490 5491 5489 5488 5489 5493 5497 5505 5510 5518
5450 5470 5500 5507 5473 5489 5455 5478 5561 5552 5541 5541 5550 5534 5541 5535 5529 5526 5526 5522 5516 5511 5507 5504 5502 5501 5498 5495 5492 5489 5489 5487 5485 5483 5481 5480 5480 5480 5481 5482 5482 5483 5485 5485 5489 5496 5501 5507 5505
5454 5456 5465 5437 5395 5434 5466 5492 5541 5557 5547 5526 5537 5529 5532 5532 5526 5522 5515 5515 5511 5505 5502 5500 5497 5495 5492 5489 5486 5482 5480 5478 5476 5474 5473 5473 5472 5472 5472 5472 5474 5476 5476 5477 5482 5485 5488 5492 5497
5456 5459 5456 5424 5475 5453 5443 5439 5538 5546 5561 5535 5527 5531 5532 5522 5520 5515 5510 5509 5506 5501 5497 5493 5490 5489 5486 5483 5478 5474 5471 5467 5465 5464 5464 5464 5464 5463 5463 5462 5463 5466 5468 5468 5466 5469 5473 5477 5483
5437 5432 5408 5424 5437 5461 5432 5495 5511 5547 5544 5545 5546 5528 5526 5523 5518 5515 5512 5506 5501 5493 5489 5488 5483 5480 5477 5475 5470 5465 5461 5458 5456 5454 5454 5453 5453 5453 5452 5452 5452 5453 5456 5458 5457 5457 5460 5460 5460
5413 5439 5434 5475 5453 5385 5407 5481 5519 5520 5518 5521 5532 5520 5511 5509 5507 5504 5503 5496 5490 5490 5485 5481 5476 5472 5470 5468 5461 5457 5453 5449 5445 5443 5442 5440 5440 5440 5439 5439 5440 5443 5442 5444 5446 5446 5447 5448 5448